Flight Track Log - Related Links

Times and Time Zones

All times are in EDT time to prevent confusion due to time zone crossing. See the GJS6221 flight status page for this flight to view local times or setup timezone preferences in your user account.

Time Position Orientation Groundspeed Altitude Reporting Facility
EDT Latitude Longitude Course Direction KTS MPH feet Rate Location/Type
Thu 01:38:25 PM 40.7500 -73.8333 123° Southeast 151 174 1,600  Level New York TRACON
Thu 01:39:25 PM 40.7333 -73.8000 123° Southeast 203 234 3,800 2,100 Climbing New York TRACON
Thu 01:40:25 PM 40.7833 -73.8000 360° North 245 282 5,800 2,516 Climbing New York TRACON
Thu 01:42:00 PM 40.8556 -73.9069 312° West 275 316 10,300 2,269 Climbing New York Center
Thu 01:43:01 PM 40.9133 -74.0003 309° West 287 330 11,700 1,600 Climbing New York Center
Thu 01:44:00 PM 40.9714 -74.0881 311° West 326 375 13,500 1,916 Climbing New York Center
Thu 01:45:00 PM 41.0331 -74.1875 309° West 350 403 15,500 1,426 Climbing New York Center
Thu 01:46:02 PM 41.0647 -74.3156 288° West 355 409 16,400 1,377 Climbing New York Center
Thu 01:47:02 PM 41.1147 -74.4531 296° West 370 426 18,300 1,765 Climbing New York Center
Thu 01:48:01 PM 41.1550 -74.5628 296° West 376 433 19,900 1,627 Climbing New York Center
Thu 01:49:00 PM 41.2006 -74.6922 295° West 382 440 21,500 1,563 Climbing New York Center
Thu 01:50:00 PM 41.2461 -74.8219 295° West 387 445 23,000 1,537 Climbing New York Center
Thu 01:51:01 PM 41.2956 -74.9600 296° West 403 464 24,600 1,279 Climbing New York Center
Thu 01:52:02 PM 41.3428 -75.0928 295° West 408 470 25,600 1,008 Climbing New York Center
Thu 01:53:00 PM 41.3975 -75.2486 295° West 408 470 26,600 966 Climbing New York Center
Thu 01:54:00 PM 41.4461 -75.3900 295° West 413 475 27,500 984 Climbing New York Center
Thu 01:55:02 PM 41.4889 -75.5233 293° West 423 487 28,600 1,100 Climbing New York Center
Thu 01:56:00 PM 41.5342 -75.6900 290° West 433 498 29,700 1,109 Climbing New York Center
Thu 01:57:01 PM 41.5744 -75.8231 292° West 433 498 30,800 1,082 Climbing New York Center
Thu 01:58:02 PM 41.6139 -75.9706 290° West 433 498 31,900 1,150 Climbing New York Center
Thu 01:59:01 PM 41.6589 -76.1294 291° West 433 498 33,100 1,140 Climbing New York Center
Thu 02:00:03 PM 41.7000 -76.2772 290° West 428 493 34,200 1,190 Climbing New York Center
Thu 02:01:02 PM 41.7392 -76.4139 291° West 416 479 35,500 1,231 Climbing New York Center
Thu 02:02:00 PM 41.7764 -76.5533 290° West 406 467 36,600 1,000 Climbing New York Center
Thu 02:03:02 PM 41.8156 -76.6875 291° West 395 455 37,500 549 Climbing New York Center
Thu 02:04:33 PM 41.8725 -76.8972 290° West 388 447 38,000 196 Climbing Cleveland Center
Thu 02:05:35 PM 41.9114 -77.0375 290° West 394 453 38,000  Level Cleveland Center
Thu 02:06:38 PM 41.9506 -77.1811 290° West 406 467 38,000  Level Cleveland Center
Thu 02:07:40 PM 41.9886 -77.3258 290° West 410 472 38,000  Level Cleveland Center
Thu 02:08:42 PM 42.0269 -77.4683 290° West 409 471 38,000  Level Cleveland Center
Thu 02:09:44 PM 42.0656 -77.6114 290° West 407 468 38,000  Level Cleveland Center
Thu 02:10:46 PM 42.1133 -77.7833 291° West 407 468 38,000  Level Cleveland Center
Thu 02:11:48 PM 42.1511 -77.9281 289° West 407 468 38,000  Level Cleveland Center
Thu 02:12:50 PM 42.1886 -78.0697 290° West 403 464 38,000  Level Cleveland Center
Thu 02:13:52 PM 42.2275 -78.2128 290° West 403 464 38,000  Level Cleveland Center
Thu 02:14:54 PM 42.2639 -78.3569 289° West 404 465 38,000  Level Cleveland Center
Thu 02:15:57 PM 42.3000 -78.5006 289° West 404 465 38,000  Level Cleveland Center
Thu 02:16:59 PM 42.3344 -78.6428 288° West 403 464 38,000  Level Cleveland Center
Thu 02:18:01 PM 42.3772 -78.8144 289° West 403 464 38,000  Level Cleveland Center
Thu 02:19:03 PM 42.4092 -78.9500 288° West 403 464 38,000  Level Cleveland Center
Thu 02:20:05 PM 42.4444 -79.0897 289° West 401 461 38,000  Level Cleveland Center
Thu 02:21:07 PM 42.4825 -79.2436 289° West 401 461 38,000  Level Cleveland Center
Thu 02:22:09 PM 42.5169 -79.3872 288° West 401 461 38,000  Level Cleveland Center
Thu 02:23:11 PM 42.5522 -79.5325 288° West 404 465 38,000  Level Cleveland Center
Thu 02:24:13 PM 42.5925 -79.7058 288° West 404 465 38,000  Level Cleveland Center
Thu 02:25:16 PM 42.6150 -79.8536 282° West 402 463 38,000  Level Cleveland Center
Thu 02:26:18 PM 42.6214 -80.0111 273° West 409 471 38,000  Level Cleveland Center
Thu 02:27:20 PM 42.6272 -80.1653 273° West 408 470 38,000  Level Cleveland Center
Thu 02:28:22 PM 42.6339 -80.3189 273° West 407 468 38,000  Level Cleveland Center
Thu 02:29:24 PM 42.6408 -80.4739 274° West 408 470 38,000  Level Cleveland Center
Thu 02:30:26 PM 42.6467 -80.6336 273° West 417 480 38,000  Level Cleveland Center
Thu 02:31:28 PM 42.6539 -80.8233 273° West 428 493 38,000  Level Cleveland Center
Thu 02:32:31 PM 42.6578 -80.9839 272° West 426 490 38,000  Level Cleveland Center
Thu 02:33:33 PM 42.6636 -81.1469 273° West 427 491 38,000  Level Cleveland Center
Thu 02:34:35 PM 42.6719 -81.3100 274° West 429 494 38,000  Level Cleveland Center
Thu 02:35:37 PM 42.6908 -81.4700 279° West 428 493 38,000  Level Cleveland Center
Thu 02:36:39 PM 42.7086 -81.6319 279° West 428 493 38,000  Level Cleveland Center
Thu 02:37:41 PM 42.7261 -81.7872 279° West 415 478 38,000  Level Cleveland Center
Thu 02:38:43 PM 42.7433 -81.9378 279° West 408 470 38,000  Level Cleveland Center
Thu 02:39:45 PM 42.7636 -82.1233 279° West 413 475 38,000  Level Cleveland Center
Thu 02:40:47 PM 42.7817 -82.2828 279° West 425 489 38,000  Level Cleveland Center
Thu 02:41:49 PM 42.7986 -82.4436 278° West 428 493 38,000  Level Cleveland Center
Thu 02:42:52 PM 42.8164 -82.6031 279° West 429 494 38,000 -432 Level Cleveland Center
Thu 02:43:54 PM 42.8389 -82.7631 281° West 430 495 37,100 -968 Descending Cleveland Center
Thu 02:44:56 PM 42.8644 -82.9547 280° West 431 496 36,000 -532 Descending Cleveland Center
Thu 02:45:58 PM 42.8864 -83.1117 281° West 427 491 36,000  Level Cleveland Center
Thu 02:47:00 PM 42.9061 -83.2672 280° West 423 487 36,000  Level Cleveland Center
Thu 02:48:02 PM 42.9267 -83.4231 280° West 423 487 36,000  Level Cleveland Center
Thu 02:49:04 PM 42.9464 -83.5814 280° West 423 487 36,000  Level Cleveland Center
Thu 02:50:06 PM 42.9717 -83.7725 280° West 426 490 36,000  Level Cleveland Center
Thu 02:51:09 PM 42.9869 -83.9342 277° West 428 493 36,000  Level Cleveland Center
Thu 02:52:11 PM 43.0014 -84.0969 277° West 430 495 36,000  Level Cleveland Center
Thu 02:53:13 PM 43.0178 -84.2592 278° West 431 496 36,000  Level Cleveland Center
Thu 02:54:15 PM 43.0333 -84.4289 277° West 432 497 36,000  Level Cleveland Center
Thu 02:55:17 PM 43.0481 -84.5936 277° West 435 501 36,000  Level Cleveland Center
Thu 02:57:08 PM 43.0764 -84.9208 277° West 436 502 36,000  Level Chicago Center
Thu 02:58:10 PM 43.0914 -85.0875 277° West 438 504 36,000  Level Chicago Center
Thu 02:59:12 PM 43.1053 -85.2547 277° West 441 507 36,000 -48 Level Chicago Center
Thu 03:00:14 PM 43.1200 -85.4239 277° West 447 514 35,900 -532 Descending Chicago Center
Thu 03:01:16 PM 43.1344 -85.5933 277° West 448 516 34,900 -1,887 Descending Chicago Center
Thu 03:02:18 PM 43.1514 -85.7975 277° West 453 521 32,000 -2,952 Descending Chicago Center
Thu 03:03:20 PM 43.1653 -85.9689 276° West 462 532 28,800 -2,903 Descending Chicago Center
Thu 03:04:22 PM 43.1694 -86.1353 272° West 457 526 26,000 -2,496 Descending Chicago Center
Thu 03:05:25 PM 43.1669 -86.2936 269° West 428 493 23,600 -2,448 Descending Chicago Center
Thu 03:06:27 PM 43.1631 -86.4678 268° West 388 447 20,900 -2,323 Descending Chicago Center
Thu 03:07:29 PM 43.1606 -86.6111 269° West 381 438 18,800 -1,935 Descending Chicago Center
Thu 03:08:31 PM 43.1581 -86.7486 269° West 369 425 16,900 -1,935 Descending Chicago Center
Thu 03:09:33 PM 43.1547 -86.8794 268° West 352 405 14,800 -1,403 Descending Chicago Center
Thu 03:10:35 PM 43.1522 -87.0128 269° West 352 405 14,000 -1,113 Descending Chicago Center
Thu 03:11:37 PM 43.1481 -87.1686 268° West 343 395 12,500 -1,355 Descending Chicago Center
Thu 03:12:39 PM 43.1458 -87.2992 269° West 342 394 11,200 -1,152 Descending Chicago Center
Thu 03:13:42 PM 43.1408 -87.4161 267° West 334 384 10,100 -624 Descending Chicago Center
Thu 03:14:44 PM 43.1114 -87.5575 254° West 321 369 9,900 -774 Descending Chicago Center
Thu 03:15:46 PM 43.0681 -87.6508 238° Southwest 290 334 8,500 -919 Descending Chicago Center
Thu 03:16:48 PM 43.0158 -87.7172 223° Southwest 283 326 8,000 -242 Descending Chicago Center
Thu 03:17:50 PM 42.9394 -87.7381 191° South 278 320 8,000 -194 Level Chicago Center
Thu 03:18:52 PM 42.8614 -87.7567 190° South 281 323 7,600 -919 Descending Chicago Center
Thu 03:19:54 PM 42.7878 -87.7769 191° South 273 314 6,100 -1,296 Descending Chicago Center
Thu 03:20:57 PM 42.7750 -87.8806 260° West 248 285 4,900 -1,344 Descending Chicago Center
Thu 03:21:59 PM 42.8175 -87.9144 330° Northwest 208 239 3,300 -1,355 Descending Chicago Center
Thu 03:23:01 PM 42.8667 -87.9103 North 187 215 2,100 -871 Descending Chicago Center
Thu 03:24:03 PM 42.9042 -87.9017 10° North 148 170 1,500 -581 Descending Chicago Center
Thu 03:26:00 PM 42.9333 -87.8833 327° Northwest  Level FlightAware Approximate

Login

Don't have an account? Register now (free) for customized features, flight alerts, and more!